Tracking 19706 objects as of 16-Jun-2019
HD Live streaming from Space Station
objects crossing your sky now

GLOBALSTAR M051

Track GLOBALSTAR M051 now!
10-day predictions
GLOBALSTAR M051 is classified as:


NORAD ID: 25853
Int'l Code: 1999-037C
Perigee: 1,957.0 km
Apogee: 1,958.5 km
Inclination: 52.0 °
Period: 126.1 minutes
Semi major axis: 8328 km
RCS: 2.464 m2 (large)
Launch date: July 10, 1999
Source: Globalstar (GLOB)
Launch site: AIR FORCE EASTERN TEST RANGE (AFETR)
aabbcc
Your satellite tracking list
Your tracking list is empty




NASA's NSSDC Master Catalog

Two Line Element Set (TLE):
1 25853U 99037C   19166.89867920 -.00000067 +00000-0 +12860-3 0  9997
2 25853 051.9805 291.7371 0000869 320.1433 191.1804 11.42173117881753
Source of the keplerian elements: AFSPC